Simultaneous Nadir Overpasses (SNOs) Predictions

Prediction of SNOs between GOES-15 and METOP-B Satellite Orbit:

Table of predicted SNOs for the next 14.0 days since TLE Epoch: 5/18/2024
Index Date Time (GOES-15) GOES-15 Lat,Lon METOP-B Lat,Lon Distance(km) Time Diff (sec)
1 05/18/2024 05:23:42 -0.19, 61.71 0.18, 60.16 177.64 80
2 05/19/2024 05:00:20 -0.20, 61.73 -0.96, 65.15 389.60 80
3 05/20/2024 17:21:57 0.19, 61.74 -0.09, 60.56 134.99 80
4 05/21/2024 16:58:35 0.20, 61.76 1.05, 65.55 432.04 80
5 05/23/2024 05:20:02 -0.19, 61.82 -0.03, 61.00 93.43 80
6 05/24/2024 04:56:40 -0.20, 61.85 -1.13, 66.00 472.97 80
7 05/25/2024 17:18:16 0.19, 61.88 0.10, 61.41 53.01 80
8 05/28/2024 05:16:20 -0.20, 61.98 -0.16, 61.87 13.47 80
9 05/30/2024 17:11:54 0.20, 62.05 0.28, 62.27 26.08 80
